Weather History for St. Charles, MO

Change the Weather History Date:

Sunday, January 27, 2013

  Actual Average (KSTL) Record (KSTL)
Temperature  
Mean Temperature 36 °F 32 °F  
Max Temperature 48 °F 41 °F 71 °F (1944)
Min Temperature 25 °F 24 °F -14 °F (1936)
Degree Days  
Heating Degree Days 28 33  
Month to date heating degree days 899  
Since 1 July heating degree days 2664  
Cooling Degree Days 0 0  
Month to date cooling degree days 0  
Year to date cooling degree days 0  
Moisture  
Dew Point 34 °F    
Average Humidity 89    
Maximum Humidity 97    
Minimum Humidity 72    
Precipitation  
Precipitation 0.26 in 0.08 in 1.00 in (1949)
Month to date precipitation 2.11  
Year to date precipitation 2.11  
Snow  
Snow 0.00 in 0.20 in 4.60 in (1979)
Month to date snowfall 4.9  
Since 1 July snowfall 10.0  
Snow Depth -    
Sea Level Pressure  
Sea Level Pressure 30.11 in    
Wind  
Wind Speed 10 mph (SE)    
Max Wind Speed 15 mph    
Max Gust Speed 20 mph    
Visibility 4 miles    
Events Rain    
T = Trace of Precipitation, MM = Missing Value Source: NWS Daily Summary

Daily Weather History Graph

Daily Weather History Graph

Search for Another Location

Airport:

Trip Planner

Search our weather history database for the weather conditions in past years. The results will help you decide how hot, cold, wet, or windy it might be!

Date:

Astronomy

Jan. 27, 2013 Rise Set
Actual Time 7:11 AM CST 5:17 PM CST
Civil Twilight 6:43 AM CST 5:46 PM CST
Nautical Twilight 6:11 AM CST 6:18 PM CST
Astronomical Twilight 5:39 AM CST 6:49 PM CST
Moon 6:10 PM CST 7:05 AM CST
Length of Visible Light 11h 02m
Length of Day
10h 05m
Full, 100% of the Moon is Illuminated
Jan 27
Full
Feb 3
Last Quarter
Feb 10
New
Feb 17
First Quarter
Feb 25
Full

Hourly Weather History & Observations

Time (CST) Temp. Windchill Dew Point Humidity Pressure Visibility Wind Dir Wind Speed Gust Speed Precip Events Conditions
12:54 AM 25.0 °F 17.1 °F 19.0 °F 78% 30.31 in 10.0 mi East 6.9 mph - N/A   Clear
1:54 AM 26.1 °F 20.5 °F 19.0 °F 75% 30.32 in 9.0 mi East 4.6 mph - N/A   Clear
3:54 AM 28.9 °F 21.9 °F 21.9 °F 75% 30.28 in 9.0 mi East 6.9 mph - N/A   Clear
4:54 AM 28.9 °F 20.4 °F 21.0 °F 72% 30.25 in 9.0 mi ESE 9.2 mph - N/A   Scattered Clouds
5:54 AM 30.0 °F 23.2 °F 23.0 °F 75% 30.25 in 8.0 mi ESE 6.9 mph - 0.00 in   Overcast
6:54 AM 30.9 °F 21.7 °F 24.1 °F 76% 30.23 in 8.0 mi SE 11.5 mph - 0.00 in   Overcast
7:33 AM 32.0 °F 23.0 °F 26.6 °F 80% 30.22 in 6.0 mi SE 11.5 mph - 0.00 in Rain Light Freezing Rain
7:54 AM 32.0 °F 24.2 °F 26.1 °F 79% 30.25 in 7.0 mi SE 9.2 mph - 0.00 in   Overcast
8:11 AM 32.0 °F 24.8 °F 26.6 °F 80% 30.25 in 5.0 mi SE 8.1 mph - 0.00 in Rain Light Freezing Rain
8:29 AM 32.0 °F 24.2 °F 28.4 °F 87% 30.24 in 2.5 mi SE 9.2 mph - 0.01 in Rain Light Freezing Rain
8:54 AM 32.0 °F 23.6 °F 28.9 °F 88% 30.23 in 3.0 mi East 10.4 mph - 0.01 in Rain Light Freezing Rain
9:02 AM 32.0 °F 24.2 °F 28.4 °F 87% 30.22 in 2.5 mi East 9.2 mph - 0.00 in Rain Light Freezing Rain
9:15 AM 32.0 °F 23.6 °F 28.4 °F 87% 30.21 in 3.0 mi East 10.4 mph - 0.00 in Rain Light Freezing Rain
9:23 AM 32.0 °F 22.1 °F 28.4 °F 87% 30.20 in 2.5 mi East 13.8 mph - 0.01 in Rain Light Freezing Rain
9:54 AM 32.0 °F 22.5 °F 30.0 °F 92% 30.22 in 2.5 mi ESE 12.7 mph - 0.02 in Rain Light Freezing Rain
10:31 AM 33.8 °F 23.9 °F 30.2 °F 87% 30.19 in 1.2 mi SE 15.0 mph 19.6 mph 0.03 in Rain Light Freezing Rain
10:43 AM 33.8 °F 24.8 °F 30.2 °F 87% 30.18 in 1.5 mi SE 12.7 mph - 0.04 in Rain Light Rain
10:52 AM 33.8 °F 24.8 °F 30.2 °F 87% 30.18 in 2.0 mi SE 12.7 mph - 0.04 in Rain Light Rain
10:54 AM 33.1 °F 23.9 °F 30.9 °F 92% 30.19 in 2.0 mi SE 12.7 mph - 0.05 in Rain Light Rain
11:04 AM 33.8 °F 25.3 °F 30.2 °F 87% 30.17 in 1.8 mi ESE 11.5 mph - 0.01 in Rain Light Rain
11:13 AM 33.8 °F 24.8 °F 32.0 °F 93% 30.16 in 1.8 mi ESE 12.7 mph - 0.02 in Rain Rain
11:41 AM 33.8 °F 25.8 °F 32.0 °F 93% 30.14 in 1.5 mi ESE 10.4 mph - 0.08 in Rain Rain
11:54 AM 34.0 °F 26.6 °F 32.0 °F 92% 30.15 in 1.2 mi SE 9.2 mph - 0.11 in Rain Rain
12:20 PM 35.6 °F 26.2 °F 33.8 °F 93% 30.10 in 3.0 mi ESE 15.0 mph - 0.05 in Rain Light Rain
12:47 PM 35.6 °F 26.6 °F 33.8 °F 93% 30.08 in 4.0 mi SE 13.8 mph - 0.05 in Rain Light Rain
12:54 PM 36.0 °F 26.7 °F 34.0 °F 93% 30.09 in 4.0 mi SE 15.0 mph - 0.05 in   Overcast
1:54 PM 37.0 °F 28.9 °F 34.0 °F 89% 30.05 in 3.0 mi SE 12.7 mph - N/A   Overcast
2:12 PM 37.4 °F 29.8 °F 35.6 °F 93% 30.04 in 3.0 mi SE 11.5 mph - N/A   Overcast
2:50 PM 37.4 °F 29.3 °F 35.6 °F 93% 30.02 in 2.5 mi ESE 12.7 mph - N/A   Overcast
2:54 PM 37.9 °F 30.9 °F 36.0 °F 93% 30.03 in 2.5 mi SE 10.4 mph - N/A   Overcast
3:21 PM 39.2 °F 32.0 °F 37.4 °F 93% 30.01 in 3.0 mi SE 11.5 mph - N/A   Overcast
3:32 PM 39.2 °F 33.0 °F 37.4 °F 93% 30.01 in 3.0 mi SE 9.2 mph - N/A   Overcast
3:54 PM 39.9 °F 33.4 °F 37.9 °F 93% 30.01 in 3.0 mi SE 10.4 mph - N/A   Overcast
4:08 PM 39.2 °F 31.2 °F 37.4 °F 93% 29.98 in 3.0 mi SE 13.8 mph - N/A   Overcast
4:54 PM 41.0 °F 34.7 °F 39.0 °F 93% 29.96 in 2.5 mi ESE 10.4 mph - 0.01 in Rain Light Rain
5:03 PM 41.0 °F 35.8 °F 39.2 °F 93% 29.96 in 3.0 mi SE 8.1 mph - 0.00 in Rain Light Rain
5:29 PM 42.8 °F 35.8 °F 41.0 °F 93% 29.95 in 5.0 mi SSE 13.8 mph - 0.01 in   Overcast
5:54 PM 43.0 °F 36.8 °F 41.0 °F 93% 29.97 in 5.0 mi SSE 11.5 mph - 0.01 in   Overcast
6:21 PM 42.8 °F 37.0 °F 41.0 °F 93% 29.96 in 5.0 mi SSE 10.4 mph - N/A   Overcast
6:54 PM 43.0 °F 37.7 °F 42.1 °F 97% 29.96 in 5.0 mi SE 9.2 mph - N/A   Overcast
7:54 PM 44.1 °F 38.6 °F 42.1 °F 93% 29.96 in 4.0 mi SE 10.4 mph - N/A   Overcast
8:54 PM 48.0 °F - 45.0 °F 89% 29.97 in 6.0 mi South 11.5 mph - N/A   Overcast
9:21 PM 48.2 °F - 46.4 °F 93% 29.97 in 6.0 mi South 6.9 mph - N/A   Overcast
9:54 PM 46.9 °F - 45.0 °F 93% 29.97 in 5.0 mi SSE 8.1 mph - N/A   Overcast
10:40 PM 46.4 °F 43.5 °F 44.6 °F 93% 29.95 in 5.0 mi SE 5.8 mph - N/A   Overcast
10:54 PM 46.9 °F - 46.0 °F 97% 29.96 in 4.0 mi SE 5.8 mph - N/A   Overcast
11:54 PM 46.9 °F - 45.0 °F 93% 29.96 in 4.0 mi SE 9.2 mph - N/A   Overcast